Location: Unspecified
(0.0000°N, 0.0000°E)
Time: 14:30:54
(UTC+00:00)

Vanguard 2 Rocket - All Passes

Search period start: 21 February 2019 00:00
Search period end: 03 March 2019 00:00
Orbit: 555 x 3325 km, 32.9° (Epoch: 20 February)

Date Brightness Start Highest point End Pass type
(mag) Time Alt. Az. Time Alt. Az. Time Alt. Az.
21 Feb - 01:44:12 10° SSW 01:54:30 18° S 02:02:17 10° SE visible
21 Feb - 04:02:03 10° SW 04:13:20 37° SSE 04:20:04 10° E visible
21 Feb - 06:19:33 10° WSW 06:27:51 54° NW 06:32:50 10° NE daylight
21 Feb - 15:23:16 10° NNW 15:30:33 30° NE 15:41:56 10° E daylight
21 Feb - 17:34:34 10° NW 17:45:38 87° SW 18:04:25 10° SE daylight
21 Feb - 19:50:31 10° W 20:04:29 40° SSW 20:22:46 10° SE visible
21 Feb - 22:14:00 10° SW 22:27:15 21° SSW 22:40:16 10° SSE visible
22 Feb - 00:40:44 10° SSW 00:51:41 18° S 01:00:33 10° SE visible
22 Feb - 03:00:11 10° SW 03:12:19 30° SSE 03:20:05 10° ESE visible
22 Feb - 05:17:41 10° SW 05:28:24 88° SE 05:34:18 10° NE visible
22 Feb - 07:38:42 10° WNW 07:41:07 12° NW 07:43:13 10° NNW daylight
22 Feb - 14:26:06 10° N 14:30:38 16° NE 14:36:36 10° ENE daylight
22 Feb - 16:35:26 10° NW 16:44:48 70° NE 17:01:26 10° ESE daylight
22 Feb - 18:49:29 10° W 19:02:03 50° SSW 19:20:48 10° SE visible
22 Feb - 21:09:51 10° WSW 21:23:29 25° SSW 21:38:32 10° SSE visible
22 Feb - 23:36:29 10° SW 23:48:10 18° S 23:58:21 10° SE visible
23 Feb - 01:57:57 10° SSW 02:10:38 25° SSE 02:19:27 10° ESE visible
23 Feb - 04:15:45 10° SW 04:28:22 60° SSE 04:35:19 10° ENE visible
23 Feb - 06:35:03 10° W 06:41:57 28° NW 06:46:32 10° NNE daylight
23 Feb - 15:36:51 10° NNW 15:44:36 46° NE 15:57:59 10° ESE daylight
23 Feb - 17:49:18 10° WNW 18:00:15 63° SSW 18:18:31 10° SE daylight
23 Feb - 20:06:59 10° WSW 20:20:09 30° SSW 20:36:36 10° SSE visible
23 Feb - 22:31:53 10° SW 22:44:11 19° S 22:55:54 10° SSE visible
24 Feb - 00:55:17 10° SSW 01:08:14 22° SSE 01:18:02 10° ESE visible
24 Feb - 03:13:42 10° SW 03:27:42 45° SSE 03:35:51 10° E visible
24 Feb - 05:32:24 10° WSW 05:42:41 54° NW 05:48:32 10° NE visible
24 Feb - 14:38:53 10° NNW 14:44:51 27° NE 14:54:02 10° E daylight
24 Feb - 16:49:47 10° WNW 16:59:08 83° SW 17:15:56 10° SE daylight
24 Feb - 19:05:17 10° W 19:17:23 36° SSW 19:34:31 10° SE visible
24 Feb - 21:27:37 10° SW 21:40:08 20° S 21:53:22 10° SSE visible
24 Feb - 23:52:11 10° SSW 00:05:04 20° S 00:15:48 10° SE visible
25 Feb - 02:11:31 10° SW 02:26:21 36° SSE 02:35:47 10° E visible
25 Feb - 04:29:56 10° SW 04:42:58 86° NW 04:50:00 10° NE visible
25 Feb - 06:51:57 10° WNW 06:56:03 15° NW 06:59:18 10° N daylight
25 Feb - 13:42:17 10° NNE 13:45:16 13° NE 13:48:53 10° ENE daylight
25 Feb - 15:50:50 10° NW 15:58:42 71° NE 16:13:07 10° ESE daylight
25 Feb - 18:04:33 10° W 18:15:16 45° SSW 18:32:18 10° SE visible
25 Feb - 20:24:12 10° WSW 20:36:23 23° SSW 20:50:50 10° SSE visible
25 Feb - 22:48:44 10° SW 23:01:17 19° S 23:12:50 10° SE visible
26 Feb - 01:09:10 10° SW 01:24:19 29° SSE 01:34:58 10° ESE visible
26 Feb - 03:27:32 10° SW 03:42:39 68° SSE 03:50:57 10° ENE visible
26 Feb - 05:47:58 10° W 05:56:43 31° NW 06:02:15 10° NNE visible
26 Feb - 14:52:23 10° NNW 14:58:53 44° NE 15:10:03 10° ESE daylight
26 Feb - 17:04:36 10° WNW 17:13:50 57° SSW 17:29:58 10° SE daylight
26 Feb - 19:21:50 10° WSW 19:33:13 27° SSW 19:48:20 10° SSE visible
26 Feb - 21:45:10 10° SW 21:57:09 19° S 22:09:24 10° SE visible
27 Feb - 00:06:44 10° SSW 00:21:34 25° SSE 00:33:14 10° ESE visible
27 Feb - 02:25:10 10° SW 02:41:38 51° SSE 02:51:23 10° ENE visible
27 Feb - 04:44:43 10° WSW 04:57:11 54° NW 05:04:10 10° NE visible
27 Feb - 13:54:36 10° N 13:59:27 24° NE 14:06:36 10° E daylight
27 Feb - 16:05:15 10° WNW 16:13:05 77° SSW 16:27:34 10° SE daylight
27 Feb - 18:20:29 10° W 18:30:45 32° SSW 18:45:56 10° SE visible
27 Feb - 20:41:49 10° SW 20:53:07 19° S 21:05:53 10° SSE visible
27 Feb - 23:04:11 10° SSW 23:18:10 22° SSE 23:30:28 10° ESE visible
28 Feb - 01:22:51 10° SW 01:39:56 41° SSE 01:51:08 10° E visible
28 Feb - 03:41:47 10° WSW 03:57:10 82° NW 04:05:32 10° NE visible
28 Feb - 06:04:45 10° W 06:10:49 18° NW 06:15:16 10° N daylight
28 Feb - 12:59:18 10° NE 13:00:06 10° NE 13:00:56 10° NE daylight
28 Feb - 15:06:24 10° NW 15:13:00 73° NE 15:25:07 10° ESE daylight
28 Feb - 17:19:58 10° W 17:28:58 39° SSW 17:43:39 10° SE daylight
28 Feb - 19:39:06 10° SW 19:49:33 21° S 20:02:35 10° SSE visible
28 Feb - 22:01:35 10° SSW 22:14:15 20° S 22:26:42 10° SE visible
01 Mar - 00:20:40 10° SW 00:37:34 33° SSE 00:50:04 10° E visible
01 Mar - 02:39:04 10° SW 02:56:29 74° SSE 03:06:22 10° ENE visible
01 Mar - 05:00:20 10° W 05:11:13 34° NW 05:17:54 10° NNE visible
01 Mar - 14:08:03 10° NNW 14:13:29 42° NE 14:22:34 10° ESE daylight
01 Mar - 16:20:09 10° WNW 16:27:53 50° SSW 16:41:31 10° SE daylight
01 Mar - 18:37:10 10° WSW 18:46:40 23° SSW 18:59:41 10° SSE visible
01 Mar - 20:59:02 10° SW 21:10:10 18° S 21:22:16 10° SE visible
01 Mar - 23:18:37 10° SSW 23:34:33 28° SSE 23:47:56 10° ESE visible
02 Mar - 01:36:36 10° SW 01:55:05 57° SSE 02:06:37 10° ENE visible
02 Mar - 03:56:37 10° WSW 04:11:20 55° NW 04:19:40 10° NE visible
02 Mar - 13:10:23 10° N 13:14:18 21° NE 13:19:42 10° E daylight
02 Mar - 15:20:53 10° WNW 15:27:27 70° SSW 15:39:29 10° SE daylight
02 Mar - 17:36:05 10° WSW 17:44:33 27° SSW 17:57:11 10° SSE daylight
02 Mar - 19:56:37 10° SW 20:06:19 18° S 20:17:47 10° SE visible
02 Mar - 22:16:45 10° SSW 22:31:02 23° SSE 22:44:34 10° ESE visible
